Home > Time Zones > World Clock > Weather > Libya > Sabha > Past weeks

Flag for Libya Weather past 2 weeks in Sabha, Libya

Now
97 °F

Passing clouds.


Feels Like: 92 °F
Forecast: 81 / 98 °F
Wind: N/A

Location: In Amenas

Current Time: Aug 20, 2014 at 10:37:20 PM

Latest Report: Aug 20, 2014 at 10:00 PM


Visibility: N/A

Pressure: 29.92 "Hg

Humidity: 11%

Dew point: 34 °F

Location of SabhaLocation

Historic Weather in Sabha — Graph

°F

Sabha temperature yesterday

Maximum temperature yesterday: 113 °F (at 4:00 PM)
Minimum temperature yesterday: 77 °F (at 7:00 AM)
Average temperature yesterday: 97 °F

Past Weeks' High & Low Weather Summary

 TemperatureHumidityPressure
High113 °F (Aug 19, 4:00 PM)51% (Aug 8, 8:00 AM)30.07 "Hg (Aug 8, 8:00 AM)
Low75 °F (Aug 17, 7:00 AM)6% (Aug 17, 4:00 PM)29.74 "Hg (Aug 6, 6:00 PM)
Average95 °F16%29.91 "Hg
* Reported Aug 5 9:00 PM — Aug 20 9:00 PM, Sabha, Weather by CustomWeather, © 2014

Note: Actual official high and low records may vary slightly from our data, if they occured in-between our weather recording intervals... More about our weather records

Advertising

Sabha weather history for previous 24 hours

 ConditionsComfort  
Time TempWeatherWind HumidityBarometerVisibility
9:00 PM
Aug 20
100 °FPassing clouds.N/A11%29.89 "HgN/A
8:00 PM104 °FPassing clouds.9 mph10%29.89 "HgN/A
7:00 PM108 °FPassing clouds.N/A9%29.89 "HgN/A
6:00 PM109 °FPassing clouds.N/A7%29.86 "HgN/A
5:00 PM109 °FPassing clouds.N/A8%29.89 "HgN/A
4:00 PM111 °FPassing clouds.N/A7%29.89 "HgN/A
3:00 PM109 °FPassing clouds.7 mph8%29.92 "HgN/A
2:00 PM108 °FSunny.N/A10%29.95 "Hg10 mi
1:00 PM106 °FClear.N/A10%29.95 "Hg5 mi
12:00 PM104 °FClear.N/A11%29.98 "Hg5 mi
11:00 AM100 °FClear.N/A12%29.98 "Hg5 mi
10:00 AM95 °FSandstorm.20 mph14%29.98 "Hg4 mi
9:00 AM90 °FClear.16 mph17%29.98 "Hg5 mi
8:00 AM82 °FSunny.9 mph16%29.95 "Hg10 mi
7:00 AM81 °FSunny.N/A17%29.95 "Hg10 mi
6:00 AM82 °FSunny.N/A15%29.92 "Hg10 mi
5:00 AM84 °FClear.N/A14%29.92 "Hg10 mi
4:00 AM86 °FClear.N/A12%29.92 "Hg10 mi
3:00 AM88 °FClear.N/A13%29.92 "Hg10 mi
2:00 AM91 °FClear.N/A12%29.92 "Hg10 mi
1:00 AM90 °FPassing clouds.5 mph12%29.92 "HgN/A
12:00 AM95 °FPassing clouds.No wind11%29.95 "HgN/A
11:00 PM
Aug 19
97 °FPassing clouds.No wind10%29.95 "HgN/A
10:00 PM97 °FPassing clouds.No wind10%29.95 "HgN/A
Weather by CustomWeather, © 2014

See weather overviewHow to use our weather pages